User: anonymous
Location: Montague
(41.3030°N, 74.7940°W)
Time: 02:15:21
(UTC-04:00)
Language:

Cosmos 1461 - Orbit

View from above orbital plane
View from above orbital plane
View from above satellite
View from above satellite

Ground track
Ground track

The orbit data is extracted from the following two-line orbital elements,

1 14064U 83044A   14207.83340668  .00001252  00000-0  13927-3 0  5717
2 14064 065.0048 304.8641 0094147 104.7965 032.1883 14.88724834565755
Epoch (UTC): 26 July 2014 20:00:06
Eccentricity: 0.0094147
inclination: 65.0048°
perigee height: 536 km
apogee height: 667 km
right ascension of ascending node: 304.8641°
argument of perigee: 104.7965°
revolutions per day: 14.88724834
mean anomaly at epoch: 32.1883°
orbit number at epoch: 56575

The dashed part of the orbit path shows where the satellite is in the earth's shadow,  

DLR